Weather History for Cut Bank, MT

Change the Weather History Date:

Tuesday, October 15, 2013

  Actual Average Record
Temperature  
Mean Temperature 41 °F 43 °F  
Max Temperature 61 °F 56 °F 81 °F (1961)
Min Temperature 20 °F 31 °F 11 °F (1930)
Degree Days  
Heating Degree Days 24 22  
Month to date heating degree days 328 287  
Since 1 July heating degree days 623 824  
Cooling Degree Days 0 0  
Month to date cooling degree days 0 0  
Year to date cooling degree days 226 161  
Moisture  
Dew Point 23 °F    
Average Humidity 56    
Maximum Humidity 92    
Minimum Humidity 19    
Precipitation  
Precipitation 0.00 in 0.01 in 0.29 in (1938)
Month to date precipitation 0.04 0.27  
Year to date precipitation 13.74 10.15  
Snow  
Snow 0.00 in - - ()
Snow Depth 0.00 in    
Sea Level Pressure  
Sea Level Pressure 30.21 in    
Wind  
Wind Speed 8 mph (SW)    
Max Wind Speed 23 mph    
Max Gust Speed 28 mph    
Visibility 10 miles    
Events      
T = Trace of Precipitation, MM = Missing Value Source: NWS Daily Summary

Daily Weather History Graph

Daily Weather History Graph

Search for Another Location

Airport:

Trip Planner

Search our weather history database for the weather conditions in past years. The results will help you decide how hot, cold, wet, or windy it might be!

Date:

Astronomy

Oct. 15, 2013 Rise Set
Actual Time 7:50 AM MDT 6:39 PM MDT
Civil Twilight 7:18 AM MDT 7:11 PM MDT
Nautical Twilight 6:41 AM MDT 7:47 PM MDT
Astronomical Twilight 6:05 AM MDT 8:23 PM MDT
Moon 4:59 PM MDT (10/15) 4:01 AM MDT (10/15)
Length of Visible Light 11h 52m
Length of Day
10h 49m
Waxing Gibbous, 88% of the Moon is Illuminated
Oct 15
Waxing Gibbous
Oct 18
Full
Oct 26
Last Quarter
Nov 3
New
Nov 9
First Quarter

Hourly Weather History & Observations

Time (MDT) Temp. Windchill Dew Point Humidity Pressure Visibility Wind Dir Wind Speed Gust Speed Precip Events Conditions
12:56 AM 28.9 °F 25.2 °F 25.0 °F 85% 30.43 in 10.0 mi West 3.5 mph - N/A   Clear
1:56 AM 28.0 °F - 24.1 °F 85% 30.42 in 10.0 mi Calm Calm - N/A   Clear
3:56 AM 26.1 °F 21.9 °F 23.0 °F 88% 30.39 in 10.0 mi WSW 3.5 mph - N/A   Clear
5:56 AM 21.9 °F - 19.9 °F 92% 30.37 in 10.0 mi Calm Calm - N/A   Clear
6:56 AM 27.0 °F 21.6 °F 21.9 °F 81% 30.33 in 10.0 mi South 4.6 mph - N/A   Clear
7:56 AM 25.0 °F - 19.9 °F 81% 30.33 in 10.0 mi Calm Calm - N/A   Clear
8:56 AM 28.9 °F - 24.1 °F 82% 30.31 in 10.0 mi Calm Calm - N/A   Clear
9:56 AM 32.0 °F 25.6 °F 26.1 °F 79% 30.30 in 10.0 mi SE 6.9 mph - N/A   Clear
10:56 AM 43.0 °F 41.3 °F 28.0 °F 56% 30.26 in 10.0 mi South 3.5 mph - N/A   Clear
11:56 AM 52.0 °F - 26.1 °F 37% 30.20 in 10.0 mi SSE 8.1 mph - N/A   Clear
12:56 PM 55.0 °F - 24.1 °F 30% 30.19 in 10.0 mi SE 5.8 mph - N/A   Clear
1:56 PM 57.9 °F - 18.0 °F 21% 30.15 in 10.0 mi SSW 8.1 mph - N/A   Clear
2:56 PM 59.0 °F - 18.0 °F 20% 30.12 in 10.0 mi Variable 3.5 mph - N/A   Clear
3:56 PM 60.1 °F - 19.9 °F 21% 30.10 in 10.0 mi West 13.8 mph - N/A   Clear
4:56 PM 57.9 °F - 21.0 °F 24% 30.11 in 10.0 mi West 18.4 mph - N/A   Clear
5:56 PM 53.1 °F - 21.9 °F 30% 30.12 in 10.0 mi West 19.6 mph 25.3 mph N/A   Clear
6:56 PM 46.9 °F - 23.0 °F 39% 30.12 in 10.0 mi West 16.1 mph 24.2 mph N/A   Clear
7:56 PM 46.0 °F 38.5 °F 24.1 °F 42% 30.12 in 10.0 mi West 19.6 mph 27.6 mph N/A   Clear
8:56 PM 44.1 °F 35.9 °F 24.1 °F 45% 30.11 in 10.0 mi West 19.6 mph - N/A   Clear
9:56 PM 43.0 °F 36.0 °F 24.1 °F 47% 30.11 in 10.0 mi West 13.8 mph - N/A   Clear
10:56 PM 42.1 °F 36.1 °F 24.1 °F 49% 30.08 in 10.0 mi West 10.4 mph - N/A   Clear
11:56 PM 44.1 °F 37.4 °F 25.0 °F 47% 30.05 in 10.0 mi West 13.8 mph - N/A   Clear